This is the latest recevied weather packets stored in our database for station/object KV9E. If no packets are shown the sender has not sent any weather packets the latest 10 day(s).
| Time | Temp. | Humidity | Pressure | Rain* | Wind** | Luminosity | Snow |
|---|---|---|---|---|---|---|---|
| 1777643125 | 11.11° C | 76% | 1014.5 hPa | 0 mm | - | 226 W/m² | - |
| 1777642822 | 11.11° C | 77% | 1014.4 hPa | 0 mm | - | 284 W/m² | - |
| 1777642519 | 11.11° C | 74% | 1014.4 hPa | 0 mm | - | 236 W/m² | - |
| 1777642215 | 11.67° C | 66% | 1014.4 hPa | 0 mm | - | 196 W/m² | - |
| 1777641912 | 11.67° C | 70% | 1014.4 hPa | 0 mm | - | 52 W/m² | - |
| 1777641607 | 11.67° C | 69% | 1014.4 hPa | 0 mm | - | 29 W/m² | - |
| 1777641303 | 11.11° C | 69% | 1014.4 hPa | 0 mm | - | 29 W/m² | - |
| 1777640999 | 11.11° C | 70% | 1014.6 hPa | 0 mm | - | 199 W/m² | - |
| 1777640695 | 9.44° C | 77% | 1014.5 hPa | 0 mm | - | 28 W/m² | - |
| 1777640391 | 9.44° C | 72% | 1014.4 hPa | 0 mm | - | 34 W/m² | - |
| 1777640089 | 8.89° C | 79% | 1014.5 hPa | 0 mm | - | 26 W/m² | - |
| 1777639785 | 8.89° C | 80% | 1014.5 hPa | 0 mm | - | 27 W/m² | - |
| 1777639483 | 8.33° C | 78% | 1014.5 hPa | 0 mm | - | 26 W/m² | - |
| 1777639179 | 7.78° C | 77% | 1014.6 hPa | 0 mm | - | 49 W/m² | - |
| 1777638876 | 7.78° C | 77% | 1014.4 hPa | 0 mm | - | 26 W/m² | - |
| 1777638571 | 7.78° C | 77% | 1014.4 hPa | 0 mm | - | 23 W/m² | - |
| 1777638268 | 7.78° C | 74% | 1014.4 hPa | 0 mm | - | 22 W/m² | - |
| 1777637964 | 7.78° C | 74% | 1014.4 hPa | 0 mm | - | 22 W/m² | - |
| 1777637661 | 7.22° C | 75% | 1014.2 hPa | 0 mm | - | 22 W/m² | - |
| 1777637358 | 7.22° C | 74% | 1014.2 hPa | 0 mm | - | 21 W/m² | - |
| 1777637055 | 7.22° C | 74% | 1014.1 hPa | 0 mm | - | 20 W/m² | - |
| 1777636750 | 7.22° C | 76% | 1014.3 hPa | 0 mm | - | 19 W/m² | - |
| 1777636447 | 6.67° C | 76% | 1014.1 hPa | 0 mm | - | 18 W/m² | - |
| 1777636143 | 6.67° C | 77% | 1014.1 hPa | 0 mm | - | 18 W/m² | - |
| 1777635838 | 6.67° C | 79% | 1014 hPa | 0 mm | - | 17 W/m² | - |
* Rain latest hour (hover to see other rain measurements)
** Current wind speed in m/s (hover to see current wind gust speed)